Regional Weather Roundup
Issued by NWS

Home | Current Version | Previous Version | Text Only | Print | Product List | Glossary On
Versions: 1 2 3 4 5 6 7 8 9 10 11 12 13 14 15 16 17 18 19 20 21 22 23 24 25 26 27 28 29 30 31 32 33 34 35 36 37 38 39 40 41 42 43 44 45 46 47 48 49 50
000
ASUS43 KDMX 282101
RWRIA

WEATHER ROUNDUP FOR IOWA
NATIONAL WEATHER SERVICE DES MOINES IA
400 PM CDT FRI APR 28 2017

NOTE: "FAIR" INDICATES FEW OR NO CLOUDS BELOW 12,000 FEET WITH NO
SIGNIFICANT WEATHER AND/OR OBSTRUCTIONS TO VISIBILITY.

* - THESE STATIONS ARE NOT NWS STATIONS...THUS NOT UNDER NWS
QUALITY CONTROL.  THEY ALSO DO NOT REPORT WEATHER SUCH
AS PRECIPITATION OR FOG.

IAZ001>003-012>014-020>022-031>034-043>046-282200-
   NORTHWEST IOWA

CITY           SKY/WX    TMP DP  RH WIND       PRES   REMARKS
CARROLL *      CLOUDY    39  39 100 NE18      29.85R WCI  30
CHEROKEE *     CLOUDY    44  34  67 NE8       29.91R
DENISON *      MOSUNNY   39  37  93 NE15G22   29.87F WCI  31
LE MARS *      CLOUDY    46  32  57 NE10G17   29.94R
ORANGE CITY *  CLOUDY    46  34  61 NE9G16    29.92S
SHELDON *      CLOUDY    46  32  57 NE15      29.91R
SIOUX CITY     LGT RAIN  45  35  68 NE10      29.91R
SPENCER        CLOUDY    47  34  60 NE16      29.92R
STORM LAKE *   CLOUDY    43  36  75 NE18      29.88S
$$

IAZ055>058-069>071-079>083-090>094-282200-
   SOUTHWEST IOWA

CITY           SKY/WX    TMP DP  RH WIND       PRES   REMARKS
ATLANTIC *     CLOUDY    39  37  93 NE14G21   29.84R WCI  31
AUDUBON *      CLOUDY    39  36  87 NE14G22   29.85S WCI  31
CLARINDA *     CLOUDY    43  41  93 NE14G20   29.82R
COUNCIL BLFS * PTSUNNY   39  39 100 NE15G24   29.85R FOG     WCI  31
CRESTON *      CLOUDY    41  39  93 NE25      29.81S
HARLAN  *      MIX PCPN  39  39 100 NE15G22   29.87F WCI  31
LAMONI         CLOUDY    41  39  93 NE16      29.79S
RED OAK *      CLOUDY    43  39  87 NE21      29.82R
SHENANDOAH *   CLOUDY    43  39  87 NE14G22   29.82R
$$

IAZ047>049-059>061-072>074-084-282200-
   CENTRAL IOWA

CITY           SKY/WX    TMP DP  RH WIND       PRES   REMARKS
AMES           LGT RAIN  42  41  96 N14G21    29.87F
ANKENY *       PTSUNNY   41  39  93 NE13G20   29.88F
BOONE *        PTSUNNY   41  41 100 NE18      29.86R
CHARITON *     LGT RAIN  41  39  93 NE15G21   29.81F
DES MOINES     CLOUDY    42  39  89 NE15      29.86R
GRINNELL*      RAIN      40  38  93 NE15G21   29.85R WCI  32
KNOXVILLE *    LGT RAIN  41  39  93 NE12      29.83R
MARSHALLTOWN   LGT RAIN  42  39  89 NE9       29.89R FOG
NEWTON *       CLOUDY    41  39  93 N16       29.85R FOG
PELLA *        RAIN      41  39  95 NE7       29.87R
PERRY *        CLOUDY    41  39  93 NE14G20   29.85F
$$

IAZ004>006-015-016-023>025-035-036-282200-
   NORTH CENTRAL IOWA

CITY           SKY/WX    TMP DP  RH WIND       PRES   REMARKS
ALGONA *       CLOUDY    45  34  65 NE13      29.91S
CLARION *      CLOUDY    41  36  81 NE14      29.92R HAZE
ESTHERVILLE    CLOUDY    45  34  65 NE18      29.91F
FORT DODGE *   CLOUDY    39  36  87 NE9       29.89F WCI  33
MASON CITY     CLOUDY    44  33  65 NE9       29.93R
FOREST CITY *  CLOUDY    45  28  53 N7        29.92R
WEBSTER CITY * LGT RAIN  39  37  93 NE17G24   29.84F WCI  30
IOWA FALLS *   RAIN      41  37  86 N7        29.92R
$$

IAZ007>011-017>019-026>030-037>042-050>054-066-282200-
   NORTHEAST IOWA

CITY           SKY/WX    TMP DP  RH WIND       PRES   REMARKS
CEDAR RAPIDS   LGT RAIN  42  42 100 NE15      29.84F FOG
CHARLES CITY * CLOUDY    46  32  57 N10       29.90S
CLINTON *      LGT RAIN  47  45  93 NE16      29.83F FOG
DECORAH *      CLOUDY    46  32  57 N9        29.88F
DUBUQUE        LGT RAIN  44  41  89 NE12      29.86S
MONTICELLO *   LGT RAIN  45  41  87 NE9       29.87R
OELWEIN *      MIX PCPN  43  39  87 NE12G17   29.87F
WATERLOO       LGT RAIN  43  38  82 N13       29.86F
$$

IAZ064-065-067-068-078-282200-
   EAST CENTRAL IOWA

CITY           SKY/WX    TMP DP  RH WIND       PRES   REMARKS
DAVENPORT      CLOUDY    47  45  93 NE14      29.82S
IOWA CITY      CLOUDY    44  41  89 NE9       29.85F
MUSCATINE *    CLOUDY    46  45  93 N9        29.85R
QUAD CITIES    CLOUDY    49  45  86 E12       29.80F FOG
$$

IAZ062-063-075>077-085>089-095>099-282200-
   SOUTHEAST IOWA

CITY           SKY/WX    TMP DP  RH WIND       PRES   REMARKS
BURLINGTON     CLOUDY    54  53  97 N8        29.78R FOG
FAIRFIELD *    CLOUDY    43  43 100 NE13G21   29.80S FOG
FORT MADISON * CLOUDY    54  54 100 N6        29.79R FOG
KEOKUK *       CLOUDY    59  55  88 SE3       29.76R
OSKALOOSA *    LGT RAIN  41  40  95 NE15      29.82S
CENTERVILLE *  CLOUDY    41  41 100 N6        29.80R
OTTUMWA        LGT RAIN  42  42 100 NE13      29.81S FOG
WASHINGTON *   LGT RAIN  43  43 100 NE15      29.84S
$$

ABBREVIATIONS USED IN REMARKS
   TC - TEMPERATURES IN CELSIUS
  WCI - WIND CHILL INDEX
   HX - HEAT INDEX
  VSB - VISIBILITY
$$





USA.gov is the U.S. government's official web portal to all federal, state and local government web resources and services.